Regional Weather Roundup
Issued by NWS Newport/Morehead, NC

Current Version | Previous Version | Graphics & Text | Print | Product List | Glossary Off
Versions: 1 2 3 4 5 6 7 8 9 10 11 12 13 14 15 16 17 18 19 20 21 22 23 24 25 26 27 28 29 30 31 32 33 34 35 36 37 38 39 40 41 42 43 44 45 46 47 48 49 50

000
ASUS42 KMHX 182122
RWRMHX
WEATHER ROUNDUP FOR EASTERN NORTH CAROLINA
NATIONAL WEATHER SERVICE NEWPORT/MOREHEAD CITY NC
400 PM EST THU DEC 18 2014

NOTE: "FAIR" INDICATES FEW OR NO CLOUDS BELOW 12,000 FEET
WITH NO SIGNIFICANT WEATHER AND/OR OBSTRUCTIONS TO VISIBILITY

NCZ015>017-031-032-045>047-102-103-182200-
NORTH COAST

CITY           SKY/WX    TMP DP  RH WIND       PRES   REMARKS
EDENTON        PTCLDY    47  30  52 CALM      30.09S
ELIZABETH CITY MOCLDY    51  28  41 SW7       30.08F
KITTY HAWK     PTCLDY    44  31  60 CALM      30.08F
MANTEO         PTCLDY    45  31  59 N3        30.09F

$$

NCZ045>047-081-094-103-104-182200-
CENTRAL COAST

CITY           SKY/WX    TMP DP  RH WIND       PRES   REMARKS
FRISCO         PTCLDY    46  33  60 NE5       30.09F
SWANQUARTER      N/A     48 N/A N/A W3        30.03F

$$

NCZ095-097-098-100-101-182200-
SOUTHERN COAST

CITY           SKY/WX    TMP DP  RH WIND       PRES   REMARKS
BEAUFORT       CLEAR     50  28  42 E6        30.09F
CEDAR ISLAND     N/A     46 N/A N/A E1        30.12F
JACKSONVILLE   CLEAR     53  30  41 E3        30.08F
PINEY ISLAND   CLEAR     49  32  52 E5        30.09F
WILMINGTON     SUNNY     53  36  52 SE7       30.08F


$$

NCZ011>013-027>030-043-044-078>080-089-090>093-098-182200-
COASTAL PLAIN

CITY           SKY/WX    TMP DP  RH WIND       PRES   REMARKS
AHOSKIE        CLOUDY    46  29  51 CALM      30.09S
CLINTON        SUNNY     51  31  45 CALM      30.10R
ELIZABETHTOWN  SUNNY     55  28  35 CALM      30.09R
GOLDSBORO      PTCLDY    51  31  46 CALM      30.08S
GREENVILLE     PTCLDY    50  28  43 SW3       30.11R
HAVELOCK       PTCLDY    51  30  44 NE5       30.09F
KENANSVILLE    PTCLDY    50  27  40 CALM      30.10S
KINSTON        CLEAR     52  28  40 CALM      30.10S
NEW BERN       CLEAR     53  27  36 CALM      30.09F
RICHLANDS      CLEAR     52  28  40 CALM      30.09S
ROCKY MOUNT    CLOUDY    49  26  41 NW3       30.09S
WASHINGTON     MOCLDY    47  29  49 CALM      30.09S
WHITEVILLE     SUNNY     56  27  32 CALM      30.08R

$$

AMZ130-135-150-152-154-156-158-170-250-252-270-ANZ085-086-088-633-658-670-182200-
MARINE OBSERVATIONS

STATION/POSITION TIME  TEMP    WIND        PRES    WAVE   SWELL
                       AIR SEA DIR/SP/G            HT/PER HT/PER
                 (UTC) (F)     (DEG/KT/KT) (MB)    (FT/S) (FT/S)
CHESAPEAKE LIGHT 2100   42     320/  9/ 10 1019.3
64 E VA BEACH    2100   43 54  320/ 12/ 16 1018.1    5/ 6   3/ 6
DUCK             2100   44 48   50/  2/  2 1018.0
2 E DUCK         2100      48                N/A     4/ 6
10 NE DUCK       2100      52                N/A     4/ 7
OREGON INLET     2100   44 51   10/  5/  7 1018.9
13E OREGON INLT  2100      53                N/A     4/ 7
HATTERAS CG      2100   46 54   40/  4/  6 1019.2
DIAMOND BUOY     2100   48                 1019.5    3/ 6
17 S OCRACOKE    NOT AVBL
CAPE LOOKOUT     2100   48      40/  8/  9 1018.8
BEAUFORT LAB     2100   50 53   70/  5/  7 1017.7
30 SE NEW RIVER  2100   51 60   40/  8/ 10 1019.2    2/ 4   2/10
5 SE WRIGHTSVLE  2100   51 55  110/  8/ 10 1018.5
225 S CAPE HAT   1954   69 73  310/  8/ 10 1017.4    3/ 6   3/ 6
41 SE CHARLESTON 2100   61 73  300/  2/  6 1017.9    1/11   2/11

$$



USA.gov is the U.S. government's official web portal to all federal, state and local government web resources and services.